Flag for Malaysia Weather past 2 weeks in Kuala Lumpur, Malaysia

77 °F

Partly cloudy.

Feels Like: 78 °F
Forecast: 74 / 84 °F
Wind: No wind

Location: Sultan Abdul Aziz Shah-Subang

Current Time: Nov 26, 2015 at 8:24:41 AM

Latest Report: Nov 26, 2015 at 7:00 AM

Visibility: 4 mi

Pressure: 29.80 "Hg

Humidity: 94%

Dew point: 75 °F

Location of Kuala LumpurLocation

Historic Weather in Kuala Lumpur — Graph


Kuala Lumpur temperature yesterday

Maximum temperature yesterday: 90 °F (at 3:00 PM)
Minimum temperature yesterday: 75 °F (at 7:00 PM)
Average temperature yesterday: 79 °F

Past Weeks' High & Low Weather Summary

High95 °F (Nov 12, 4:00 PM)100% (Nov 11, 8:00 AM)29.92 "Hg (Nov 11, 8:00 AM)
Low75 °F (Nov 11, 7:00 AM)53% (Nov 18, 2:00 PM)29.68 "Hg (Nov 14, 4:00 PM)
Average81 °F88%29.81 "Hg
* Reported Nov 11 7:00 AM — Nov 26 7:00 AM, Kuala Lumpur, Weather by CustomWeather, © 2015

Note: Actual official high and low records may vary slightly from our data, if they occured in-between our weather recording intervals... More about our weather records


Kuala Lumpur weather history for previous 24 hours

Time TempWeatherWind HumidityBarometerVisibility
7:00 AM
Thu, Nov 26
77 °FPartly cloudy.No wind94%29.80 "Hg4 mi
6:00 AM77 °FPartly cloudy.1 mph94%29.80 "Hg4 mi
5:00 AM77 °FPartly cloudy.2 mph100%29.80 "Hg4 mi
4:00 AM77 °FPartly cloudy.No wind100%29.80 "Hg4 mi
3:00 AM77 °FPartly cloudy.1 mph94%29.80 "Hg4 mi
2:00 AM77 °FPartly cloudy.1 mph94%29.83 "Hg4 mi
1:00 AM77 °FPartly cloudy.1 mph94%29.83 "Hg4 mi
12:00 AM77 °FPartly cloudy.1 mph94%29.83 "Hg5 mi
11:00 PM
Wed, Nov 25
77 °FLight rain. Mostly cloudy.2 mph94%29.83 "Hg5 mi
10:00 PM77 °FLight rain. Mostly cloudy.2 mph94%29.83 "Hg5 mi
9:00 PM77 °FPartly cloudy.1 mph94%29.83 "Hg6 mi
8:00 PM77 °FThunderstorms. Partly cloudy.1 mph94%29.80 "Hg5 mi
7:00 PM75 °FThunderstorms. Broken clouds.1 mph100%29.77 "Hg5 mi
6:00 PM77 °FStrong thunderstorms. More clouds than sun.12 mph94%29.74 "Hg1 mi
5:00 PM82 °FThunderstorms. Broken clouds.10 mph89%29.71 "Hg2 mi
4:00 PM90 °FBroken clouds.8 mph63%29.71 "HgN/A
3:00 PM90 °FBroken clouds.6 mph63%29.74 "HgN/A
2:00 PM86 °FBroken clouds.5 mph75%29.80 "HgN/A
1:00 PM81 °FBroken clouds.3 mph89%29.83 "HgN/A
12:00 PM79 °FBroken clouds.1 mph89%29.86 "Hg5 mi
11:00 AM77 °FThunderstorms. Broken clouds.No wind100%29.89 "Hg3 mi
10:00 AM79 °FThunderstorms. More clouds than sun.3 mph89%29.89 "Hg3 mi
9:00 AM79 °FBroken clouds.1 mph89%29.86 "Hg6 mi
8:00 AM77 °FPartly cloudy.2 mph94%29.86 "HgN/A
Weather by CustomWeather, © 2015

See weather overviewHow to use our weather pages